ASA67 PAJN-PANC

Flight info

Callsign ASA67
Flight time 1h 26m
Altitude 38000
Route CHLKT2 ALATY JOH PTERS3
Aircraft B737/M-SDE2E3FGHIRWXY/LB1

Departure

Time 2026-05-08 05:00
Airport Juneau International Airport (PAJN)

Arrival

Time 2026-05-08 06:27
Airport Ted Stevens Anchorage International Airport (PANC)
Time Latitude Longitude Altitude Speed Heading
2026-05-08 04:40 58.35847 -134.58429 33 ft 0 kts 48°
2026-05-08 04:50 58.35837 -134.58450 32 ft 4 kts 48°
2026-05-08 04:51 58.35819 -134.58488 32 ft 4 kts 49°
2026-05-08 04:51 58.35802 -134.58526 33 ft 4 kts 50°
2026-05-08 04:51 58.35789 -134.58555 32 ft 1 kts 50°
2026-05-08 04:51 58.35787 -134.58559 31 ft 0 kts 50°
2026-05-08 04:54 58.35788 -134.58558 31 ft 1 kts 51°
2026-05-08 04:54 58.35794 -134.58528 32 ft 5 kts 76°
2026-05-08 04:55 58.35785 -134.58434 32 ft 10 kts 104°
2026-05-08 04:55 58.35745 -134.58307 33 ft 13 kts 168°
2026-05-08 04:55 58.35689 -134.58212 33 ft 11 kts 107°
2026-05-08 04:55 58.35667 -134.58049 33 ft 15 kts 104°
2026-05-08 04:56 58.35633 -134.57814 33 ft 22 kts 105°
2026-05-08 04:56 58.35594 -134.57540 33 ft 27 kts 105°
2026-05-08 04:56 58.35555 -134.57255 33 ft 22 kts 105°
2026-05-08 04:56 58.35529 -134.57069 32 ft 22 kts 105°
2026-05-08 04:57 58.35492 -134.56807 33 ft 21 kts 105°
2026-05-08 04:57 58.35467 -134.56630 33 ft 20 kts 105°
2026-05-08 04:57 58.35448 -134.56493 33 ft 19 kts 104°
2026-05-08 04:57 58.35416 -134.56248 33 ft 19 kts 104°
2026-05-08 04:58 58.35382 -134.56012 32 ft 18 kts 104°
2026-05-08 04:58 58.35350 -134.55783 33 ft 18 kts 105°
2026-05-08 04:58 58.35321 -134.55578 33 ft 17 kts 103°
2026-05-08 04:58 58.35293 -134.55364 33 ft 16 kts 104°
2026-05-08 04:59 58.35203 -134.55289 33 ft 16 kts 192°
2026-05-08 04:59 58.35185 -134.55410 32 ft 11 kts 285°
2026-05-08 04:59 58.35204 -134.55551 31 ft 20 kts 284°
2026-05-08 04:59 58.35285 -134.56133 32 ft 95 kts 284°
2026-05-08 05:00 58.35505 -134.57721 76 ft 162 kts 284°
2026-05-08 05:00 58.35830 -134.60036 490 ft 203 kts 285°
2026-05-08 05:00 58.36024 -134.62901 1063 ft 232 kts 269°
2026-05-08 05:00 58.35971 -134.66152 1538 ft 266 kts 270°
2026-05-08 05:01 58.35968 -134.69741 2542 ft 272 kts 276°
2026-05-08 05:01 58.36425 -134.73171 3919 ft 262 kts 290°
2026-05-08 05:01 58.37055 -134.76374 5032 ft 268 kts 289°
2026-05-08 05:01 58.37689 -134.79698 6159 ft 267 kts 289°
2026-05-08 05:02 58.38309 -134.83041 7198 ft 269 kts 288°
2026-05-08 05:02 58.38929 -134.86420 8163 ft 274 kts 288°
2026-05-08 05:02 58.39558 -134.89876 9143 ft 278 kts 287°
2026-05-08 05:02 58.40191 -134.93364 10094 ft 282 kts 287°
2026-05-08 05:03 58.40846 -134.96985 10633 ft 301 kts 287°
2026-05-08 05:03 58.41555 -135.00924 10986 ft 323 kts 287°
2026-05-08 05:03 58.42293 -135.05027 11777 ft 329 kts 287°
2026-05-08 05:03 58.43041 -135.09176 12707 ft 332 kts 288°
2026-05-08 05:04 58.44038 -135.13184 13626 ft 338 kts 299°
2026-05-08 05:04 58.45296 -135.16989 14530 ft 341 kts 301°
2026-05-08 05:04 58.46261 -135.19783 15188 ft 343 kts 301°
2026-05-08 05:04 58.47058 -135.22077 15717 ft 345 kts 301°
2026-05-08 05:05 58.48388 -135.25915 16601 ft 349 kts 301°
2026-05-08 05:05 58.49726 -135.29816 17444 ft 352 kts 301°
2026-05-08 05:05 58.51066 -135.33768 18329 ft 356 kts 300°
2026-05-08 05:05 58.52411 -135.37767 19076 ft 359 kts 300°
2026-05-08 05:06 58.53765 -135.41818 19822 ft 364 kts 300°
2026-05-08 05:06 58.55134 -135.45933 20558 ft 368 kts 299°
2026-05-08 05:06 58.56511 -135.50089 21281 ft 372 kts 299°
2026-05-08 05:06 58.57903 -135.54294 22019 ft 376 kts 299°
2026-05-08 05:07 58.59307 -135.58549 22727 ft 380 kts 299°
2026-05-08 05:07 58.60454 -135.62031 23290 ft 383 kts 298°
2026-05-08 05:07 58.61459 -135.65086 23828 ft 384 kts 298°
2026-05-08 05:07 58.62867 -135.69370 24537 ft 384 kts 298°
2026-05-08 05:08 58.64297 -135.73726 25123 ft 388 kts 298°
2026-05-08 05:08 58.65739 -135.78124 25693 ft 391 kts 297°
2026-05-08 05:08 58.67191 -135.82571 26219 ft 395 kts 297°
2026-05-08 05:08 58.68662 -135.87062 26765 ft 398 kts 297°
2026-05-08 05:09 58.70127 -135.91570 27371 ft 399 kts 297°
2026-05-08 05:09 58.71601 -135.96118 27920 ft 402 kts 297°
2026-05-08 05:09 58.73085 -136.00699 28428 ft 405 kts 297°
2026-05-08 05:09 58.74579 -136.05318 28923 ft 408 kts 297°
2026-05-08 05:10 58.76002 -136.09721 29385 ft 410 kts 297°
2026-05-08 05:10 58.78913 -136.18743 31025 ft 395 kts 296°
2026-05-08 05:10 58.80232 -136.22807 31838 ft 386 kts 295°
2026-05-08 05:11 58.81631 -136.27166 32595 ft 380 kts 295°
2026-05-08 05:11 58.82963 -136.31332 33149 ft 378 kts 294°
2026-05-08 05:11 58.84337 -136.35648 33639 ft 378 kts 294°
2026-05-08 05:11 58.85713 -136.39974 34090 ft 379 kts 294°
2026-05-08 05:12 58.87100 -136.44350 34305 ft 384 kts 294°
2026-05-08 05:12 58.88486 -136.48731 34538 ft 389 kts 293°
2026-05-08 05:12 58.89897 -136.53208 34834 ft 391 kts 294°
2026-05-08 05:12 58.91314 -136.57686 35175 ft 391 kts 294°
2026-05-08 05:13 58.92733 -136.62168 35542 ft 390 kts 294°
2026-05-08 05:13 58.94155 -136.66672 35746 ft 395 kts 294°
2026-05-08 05:13 58.95587 -136.71224 35952 ft 396 kts 294°
2026-05-08 05:13 58.97021 -136.75791 36124 ft 399 kts 295°
2026-05-08 05:14 58.98470 -136.80376 36427 ft 399 kts 295°
2026-05-08 05:14 58.99909 -136.84969 36785 ft 397 kts 294°
2026-05-08 05:14 59.01333 -136.89536 37107 ft 396 kts 294°
2026-05-08 05:14 59.02758 -136.94116 37396 ft 396 kts 295°
2026-05-08 05:15 59.04184 -136.98700 37679 ft 397 kts 295°
2026-05-08 05:15 59.05611 -137.03301 37982 ft 397 kts 295°
2026-05-08 05:15 59.07028 -137.07882 38175 ft 399 kts 295°
2026-05-08 05:16 59.09922 -137.17279 38142 ft 410 kts 295°
2026-05-08 05:16 59.12866 -137.26859 38172 ft 418 kts 295°
2026-05-08 05:17 59.15866 -137.36647 38149 ft 422 kts 295°
2026-05-08 05:17 59.18866 -137.46471 38169 ft 422 kts 295°
2026-05-08 05:18 59.21859 -137.56322 38144 ft 422 kts 295°
2026-05-08 05:18 59.24820 -137.66120 38143 ft 422 kts 295°
2026-05-08 05:19 59.27783 -137.76038 38160 ft 423 kts 294°
2026-05-08 05:19 59.30760 -137.85954 38146 ft 422 kts 295°
2026-05-08 05:20 59.33736 -137.95856 38146 ft 421 kts 294°
2026-05-08 05:20 59.36676 -138.05734 38157 ft 419 kts 294°
2026-05-08 05:21 59.39601 -138.15617 38162 ft 419 kts 294°
2026-05-08 05:21 59.42443 -138.25611 38146 ft 416 kts 287°
2026-05-08 05:22 59.44277 -138.36313 38166 ft 413 kts 282°
2026-05-08 05:22 59.45930 -138.47162 38152 ft 415 kts 282°
2026-05-08 05:23 59.47600 -138.57944 38142 ft 415 kts 282°
2026-05-08 05:23 59.49312 -138.68796 38147 ft 415 kts 282°
2026-05-08 05:24 59.51035 -138.79662 38147 ft 415 kts 282°
2026-05-08 05:24 59.52746 -138.90503 38141 ft 414 kts 282°
2026-05-08 05:25 59.54450 -139.01361 38161 ft 415 kts 282°
2026-05-08 05:25 59.56150 -139.12269 38134 ft 416 kts 282°
2026-05-08 05:26 59.57843 -139.23201 38140 ft 417 kts 282°
2026-05-08 05:26 59.59527 -139.34146 38134 ft 417 kts 282°
2026-05-08 05:27 59.61204 -139.45111 38137 ft 417 kts 282°
2026-05-08 05:27 59.62871 -139.56087 38128 ft 417 kts 282°
2026-05-08 05:28 59.64519 -139.67012 38141 ft 418 kts 282°
2026-05-08 05:28 59.66172 -139.78038 38140 ft 419 kts 281°
2026-05-08 05:29 59.67821 -139.89109 38150 ft 419 kts 281°
2026-05-08 05:29 59.69460 -140.00188 38150 ft 420 kts 281°
2026-05-08 05:30 59.71092 -140.11296 38141 ft 420 kts 281°
2026-05-08 05:30 59.72716 -140.22417 38144 ft 420 kts 281°
2026-05-08 05:31 59.74334 -140.33577 38154 ft 422 kts 281°
2026-05-08 05:31 59.75948 -140.44789 38142 ft 423 kts 281°
2026-05-08 05:32 59.77553 -140.56008 38149 ft 423 kts 281°
2026-05-08 05:32 59.79138 -140.67173 38149 ft 423 kts 281°
2026-05-08 05:33 59.80726 -140.78432 38138 ft 423 kts 281°
2026-05-08 05:33 59.82303 -140.89686 38140 ft 423 kts 281°
2026-05-08 05:34 59.83873 -141.00979 38150 ft 424 kts 281°
2026-05-08 05:34 59.85436 -141.12299 38139 ft 424 kts 281°
2026-05-08 05:35 59.86988 -141.23618 38149 ft 424 kts 281°
2026-05-08 05:35 59.88529 -141.34937 38144 ft 424 kts 281°
2026-05-08 05:36 59.90058 -141.46257 38123 ft 423 kts 280°
2026-05-08 05:36 59.91579 -141.57593 38127 ft 423 kts 280°
2026-05-08 05:37 59.93093 -141.68968 38147 ft 424 kts 280°
2026-05-08 05:37 59.94598 -141.80354 38139 ft 425 kts 280°
2026-05-08 05:38 59.96095 -141.91762 38137 ft 425 kts 280°
2026-05-08 05:38 59.97331 -142.01252 38136 ft 425 kts 280°
2026-05-08 05:39 59.99049 -142.14536 38132 ft 425 kts 280°
2026-05-08 05:39 60.00517 -142.25977 38171 ft 425 kts 280°
2026-05-08 05:40 60.01742 -142.35598 38139 ft 426 kts 280°
2026-05-08 05:40 60.03185 -142.47015 38133 ft 427 kts 279°
2026-05-08 05:41 60.04632 -142.58543 38130 ft 427 kts 279°
2026-05-08 05:41 60.06068 -142.70073 38133 ft 427 kts 279°
2026-05-08 05:42 60.07495 -142.81627 38134 ft 427 kts 279°
2026-05-08 05:42 60.08911 -142.93176 38131 ft 427 kts 279°
2026-05-08 05:43 60.10316 -143.04736 38135 ft 428 kts 279°
2026-05-08 05:43 60.11717 -143.16359 38130 ft 429 kts 279°
2026-05-08 05:44 60.13111 -143.28008 38132 ft 429 kts 279°
2026-05-08 05:44 60.14495 -143.39675 38135 ft 430 kts 279°
2026-05-08 05:45 60.15861 -143.51283 38135 ft 430 kts 279°
2026-05-08 05:45 60.17226 -143.62980 38122 ft 430 kts 279°
2026-05-08 05:46 60.18580 -143.74684 38126 ft 430 kts 279°
2026-05-08 05:46 60.19924 -143.86399 38127 ft 430 kts 279°
2026-05-08 05:47 60.21257 -143.98113 38124 ft 430 kts 278°
2026-05-08 05:47 60.22579 -144.09833 38121 ft 430 kts 278°
2026-05-08 05:48 60.23890 -144.21563 38119 ft 429 kts 278°
2026-05-08 05:48 60.25190 -144.33287 38165 ft 429 kts 278°
2026-05-08 05:49 60.26482 -144.45051 38134 ft 431 kts 278°
2026-05-08 05:49 60.27767 -144.56857 38135 ft 431 kts 278°
2026-05-08 05:50 60.29035 -144.68607 38130 ft 432 kts 278°
2026-05-08 05:50 60.30303 -144.80462 38130 ft 433 kts 278°
2026-05-08 05:51 60.31561 -144.92330 38129 ft 433 kts 278°
2026-05-08 05:51 60.32809 -145.04213 38150 ft 433 kts 278°
2026-05-08 05:52 60.34048 -145.16116 38138 ft 433 kts 278°
2026-05-08 05:52 60.35279 -145.28063 38125 ft 434 kts 278°
2026-05-08 05:53 60.36499 -145.40007 38130 ft 434 kts 278°
2026-05-08 05:53 60.37707 -145.51958 38128 ft 434 kts 278°
2026-05-08 05:54 60.38901 -145.63881 38133 ft 434 kts 278°
2026-05-08 05:54 60.40088 -145.75848 38146 ft 434 kts 278°
2026-05-08 05:55 60.41266 -145.87844 38133 ft 435 kts 278°
2026-05-08 05:55 60.42435 -145.99861 38125 ft 435 kts 277°
2026-05-08 05:56 60.43585 -146.11806 38138 ft 435 kts 277°
2026-05-08 05:56 60.44732 -146.23842 38140 ft 435 kts 277°
2026-05-08 05:57 60.45870 -146.35897 38144 ft 436 kts 277°
2026-05-08 05:57 60.46998 -146.47958 38141 ft 436 kts 277°
2026-05-08 05:58 60.48371 -146.59946 38118 ft 442 kts 290°
2026-05-08 05:58 60.49929 -146.65374 38147 ft 449 kts 301°
2026-05-08 05:58 60.51796 -146.70462 38138 ft 450 kts 303°
2026-05-08 05:59 60.55639 -146.80528 38129 ft 451 kts 303°
2026-05-08 05:59 60.59426 -146.90725 38126 ft 451 kts 302°
2026-05-08 06:00 60.63166 -147.01001 38144 ft 452 kts 302°
2026-05-08 06:00 60.66881 -147.11358 38147 ft 453 kts 301°
2026-05-08 06:01 60.70534 -147.21765 38126 ft 454 kts 301°
2026-05-08 06:01 60.72383 -147.27059 37561 ft 460 kts 301°
2026-05-08 06:01 60.74231 -147.32352 36983 ft 455 kts 301°
2026-05-08 06:01 60.76066 -147.37609 36228 ft 454 kts 301°
2026-05-08 06:02 60.77894 -147.42853 35453 ft 452 kts 300°
2026-05-08 06:02 60.79718 -147.48101 34660 ft 452 kts 300°
2026-05-08 06:02 60.81538 -147.53345 33846 ft 451 kts 300°
2026-05-08 06:02 60.83328 -147.58512 33076 ft 448 kts 300°
2026-05-08 06:03 60.85140 -147.63753 32415 ft 442 kts 300°
2026-05-08 06:03 60.86885 -147.68813 31814 ft 437 kts 299°
2026-05-08 06:03 60.88629 -147.73881 31223 ft 431 kts 299°
2026-05-08 06:03 60.90344 -147.78875 30635 ft 426 kts 299°
2026-05-08 06:04 60.92040 -147.83827 30066 ft 421 kts 298°
2026-05-08 06:04 60.93715 -147.88731 29369 ft 416 kts 298°
2026-05-08 06:04 60.95378 -147.93618 28580 ft 416 kts 298°
2026-05-08 06:04 60.96949 -147.98240 27982 ft 412 kts 298°
2026-05-08 06:05 60.98581 -148.03046 27419 ft 407 kts 298°
2026-05-08 06:05 61.00185 -148.07781 26871 ft 402 kts 298°
2026-05-08 06:05 61.01778 -148.12492 26277 ft 398 kts 298°
2026-05-08 06:05 61.03355 -148.17167 25702 ft 394 kts 298°
2026-05-08 06:06 61.04912 -148.21791 25150 ft 391 kts 299°
2026-05-08 06:06 61.06456 -148.26391 24579 ft 387 kts 298°
2026-05-08 06:06 61.07980 -148.30945 24022 ft 384 kts 298°
2026-05-08 06:06 61.09499 -148.35478 23465 ft 381 kts 298°
2026-05-08 06:07 61.11001 -148.39975 22840 ft 378 kts 298°
2026-05-08 06:07 61.12485 -148.44429 22300 ft 375 kts 298°
2026-05-08 06:07 61.13943 -148.48873 21742 ft 370 kts 295°
2026-05-08 06:07 61.14984 -148.53619 21303 ft 356 kts 285°
2026-05-08 06:08 61.15655 -148.57462 20897 ft 353 kts 284°
2026-05-08 06:08 61.16458 -148.62259 20375 ft 353 kts 283°
2026-05-08 06:08 61.17257 -148.67052 19862 ft 351 kts 284°
2026-05-08 06:08 61.18066 -148.71828 19291 ft 351 kts 284°
2026-05-08 06:09 61.18718 -148.75632 18842 ft 351 kts 284°
2026-05-08 06:09 61.19488 -148.80087 18331 ft 351 kts 285°
2026-05-08 06:09 61.20312 -148.84843 17715 ft 350 kts 285°
2026-05-08 06:09 61.21061 -148.89159 17223 ft 347 kts 285°
2026-05-08 06:10 61.21876 -148.93846 16672 ft 343 kts 285°
2026-05-08 06:10 61.22684 -148.98503 16096 ft 343 kts 285°
2026-05-08 06:10 61.23484 -149.03141 15537 ft 341 kts 285°
2026-05-08 06:10 61.24292 -149.07758 15007 ft 339 kts 285°
2026-05-08 06:11 61.24767 -149.12470 14654 ft 329 kts 273°
2026-05-08 06:11 61.25001 -149.17174 14274 ft 325 kts 273°
2026-05-08 06:11 61.25240 -149.21816 13962 ft 323 kts 273°
2026-05-08 06:11 61.25489 -149.26482 13549 ft 327 kts 273°
2026-05-08 06:12 61.25665 -149.29599 13303 ft 328 kts 274°
2026-05-08 06:12 61.25861 -149.32950 13045 ft 329 kts 274°
2026-05-08 06:12 61.26140 -149.37675 12657 ft 330 kts 274°
2026-05-08 06:12 61.26410 -149.42260 12306 ft 329 kts 274°
2026-05-08 06:13 61.26686 -149.46970 11958 ft 328 kts 274°
2026-05-08 06:13 61.26952 -149.51668 11577 ft 327 kts 273°
2026-05-08 06:13 61.27220 -149.56366 11255 ft 327 kts 274°
2026-05-08 06:13 61.27490 -149.61061 10892 ft 327 kts 274°
2026-05-08 06:14 61.27755 -149.65698 10529 ft 319 kts 273°
2026-05-08 06:14 61.28039 -149.70221 10178 ft 313 kts 278°
2026-05-08 06:14 61.28416 -149.72668 9963 ft 313 kts 293°
2026-05-08 06:14 61.29389 -149.76053 9930 ft 299 kts 299°
2026-05-08 06:15 61.30471 -149.79623 9796 ft 286 kts 299°
2026-05-08 06:15 61.31387 -149.82702 9164 ft 289 kts 298°
2026-05-08 06:15 61.32420 -149.86211 8783 ft 279 kts 298°
2026-05-08 06:15 61.33415 -149.89615 8461 ft 273 kts 298°
2026-05-08 06:16 61.33747 -149.90751 8364 ft 273 kts 298°
2026-05-08 06:16 61.34992 -149.94574 7998 ft 278 kts 314°
2026-05-08 06:16 61.36675 -149.96657 7471 ft 287 kts 341°
2026-05-08 06:16 61.38609 -149.97790 6911 ft 292 kts 345°
2026-05-08 06:17 61.42069 -149.99977 5997 ft 284 kts 342°
2026-05-08 06:17 61.43702 -150.01021 5729 ft 272 kts 342°
2026-05-08 06:17 61.45471 -150.02149 5568 ft 262 kts 342°
2026-05-08 06:18 61.47183 -150.03248 5456 ft 251 kts 342°
2026-05-08 06:18 61.48815 -150.04303 5354 ft 242 kts 342°
2026-05-08 06:18 61.50398 -150.05426 5218 ft 240 kts 332°
2026-05-08 06:18 61.51536 -150.07887 4932 ft 238 kts 291°
2026-05-08 06:19 61.51723 -150.11242 4688 ft 232 kts 258°
2026-05-08 06:19 61.51123 -150.14294 4420 ft 226 kts 231°
2026-05-08 06:19 61.49931 -150.16366 4151 ft 223 kts 203°
2026-05-08 06:19 61.48446 -150.17053 3897 ft 222 kts 178°
2026-05-08 06:20 61.46930 -150.16530 3645 ft 221 kts 166°
2026-05-08 06:20 61.45440 -150.15709 3380 ft 222 kts 165°
2026-05-08 06:20 61.43949 -150.14867 3128 ft 223 kts 165°
2026-05-08 06:20 61.42468 -150.14045 3040 ft 224 kts 165°
2026-05-08 06:21 61.40957 -150.13206 3009 ft 224 kts 165°
2026-05-08 06:21 61.39892 -150.12612 2998 ft 222 kts 165°
2026-05-08 06:21 61.38403 -150.11779 2997 ft 221 kts 165°
2026-05-08 06:21 61.36932 -150.10955 2996 ft 222 kts 165°
2026-05-08 06:22 61.35830 -150.10337 2867 ft 224 kts 165°
2026-05-08 06:22 61.34810 -150.09766 2676 ft 220 kts 165°
2026-05-08 06:22 61.34239 -150.09446 2630 ft 212 kts 165°
2026-05-08 06:22 61.33242 -150.08888 2511 ft 198 kts 165°
2026-05-08 06:23 61.31962 -150.08171 2388 ft 183 kts 165°
2026-05-08 06:23 61.30911 -150.07582 2263 ft 170 kts 165°
2026-05-08 06:23 61.29882 -150.07006 2148 ft 159 kts 165°
2026-05-08 06:23 61.28835 -150.06419 1904 ft 155 kts 165°
2026-05-08 06:24 61.27826 -150.05854 1753 ft 148 kts 165°
2026-05-08 06:24 61.26837 -150.05300 1657 ft 145 kts 165°
2026-05-08 06:24 61.25849 -150.04746 1507 ft 149 kts 165°
2026-05-08 06:24 61.24862 -150.04193 1336 ft 142 kts 165°
2026-05-08 06:25 61.23909 -150.03659 1081 ft 139 kts 165°
2026-05-08 06:25 61.23038 -150.03171 863 ft 129 kts 165°
2026-05-08 06:25 61.22201 -150.02702 683 ft 124 kts 165°
2026-05-08 06:25 61.21360 -150.02229 525 ft 127 kts 163°
2026-05-08 06:26 61.20504 -150.01753 326 ft 126 kts 163°
2026-05-08 06:26 61.19642 -150.01271 150 ft 130 kts 163°
2026-05-08 06:26 61.19081 -150.00952 129 ft 113 kts 164°
2026-05-08 06:26 61.18346 -150.00540 126 ft 72 kts 165°
2026-05-08 06:27 61.17984 -150.00321 128 ft 39 kts 154°
2026-05-08 06:27 61.17827 -150.00094 130 ft 12 kts 137°
2026-05-08 06:27 61.17795 -150.00028 137 ft 5 kts 134°
2026-05-08 06:27 61.17768 -149.99971 135 ft 7 kts 135°
2026-05-08 06:28 61.17718 -149.99875 136 ft 14 kts 144°
2026-05-08 06:28 61.17669 -149.99780 136 ft 15 kts 112°
2026-05-08 06:28 61.17683 -149.99572 136 ft 15 kts 76°
2026-05-08 06:28 61.17719 -149.99352 136 ft 18 kts 70°
2026-05-08 06:29 61.17725 -149.99163 136 ft 18 kts 128°
2026-05-08 06:29 61.17667 -149.99009 136 ft 14 kts 75°
2026-05-08 06:29 61.17692 -149.98816 136 ft 14 kts 95°
2026-05-08 06:29 61.17619 -149.98705 136 ft 13 kts 159°
2026-05-08 06:30 61.17536 -149.98642 136 ft 13 kts 161°
2026-05-08 06:30 61.17453 -149.98583 136 ft 12 kts 160°
2026-05-08 06:30 61.17429 -149.98547 136 ft 0 kts 116°
2026-05-08 06:31 61.17427 -149.98541 136 ft 3 kts 115°
2026-05-08 06:32 61.17426 -149.98452 136 ft 9 kts 83°
2026-05-08 06:32 61.17429 -149.98386 136 ft 1 kts 84°